General Aviation Weather

Text Reports

Enter one or more of the following location identifiers separated by a space:

Zip Code, Four-Character ICAO or Three-Character IATA airport codes.

METAR - Aviation Routine Weather Report
PHSF - Bradshaw AFB, Hawaii
Updated at 10:56 AM GMT on July 31, 2014 (12:56 AM HST):
METAR PHSF 311056Z AUTO 13005KT 12SM CLR 09/03 A3034 RMK AO2 SLP161 T00860025
TAF - Terminal Area Forecast
PHSF - Bradshaw AFB, Hawaii
Updated at 10:56 AM GMT on July 31, 2014 (12:56 AM HST):
No TAF is currently available for this location.
Decoded:
No decoded TAF is available.
PIREP - Pilot Weather Report
PHSF - Bradshaw AFB, Hawaii
Updated at 10:56 AM GMT on July 31, 2014 (12:56 AM HST):
No PIREP is currently available for this location.
AIRMET - Airmens Meteorological Information
PHSF - Bradshaw AFB, Hawaii
Updated at 10:56 AM GMT on July 31, 2014 (12:56 AM HST):
No AIRMET is currently available for this location.
SIGMET - Significant Meteorological Information
PHSF - Bradshaw AFB, Hawaii
Updated at 10:56 AM GMT on July 31, 2014 (12:56 AM HST):
No SIGMET is currently available for this location.
NOTAM - Notice to Airmen
PHSF - Bradshaw AFB, Hawaii
Updated at 10:56 AM GMT on July 31, 2014 (12:56 AM HST):
No NOTAM is currently available for this location.
Forecast Area
PHSF - Bradshaw AFB, Hawaii
Updated at 10:56 AM GMT on July 31, 2014 (12:56 AM HST):
No NOTAM is currently available for this location.
Aviation Weather Maps